星链-30706 (STARLINK-30706 )

导读 | 豆包AI

STARLINK-30706是美国太空探索技术公司(SpaceX)星链卫星互联网星座的组网卫星,于2023年9月25日发射入轨,属于星链星座大规模部署批次中的一员,承担近地轨道卫星互联网组网任务,为全球用户提供低延迟、高速率的宽带互联网接入服务,推进星链星座全球覆盖的建设进程。

Basic Information
目录编号:
57947
目录名称:
STARLINK-30706
国际标识:
2023-148N
轨道中心:
EARTH
卫星名称:
星链-30706
卫星全名:
星链-30706 (STARLINK-30706 )
卫星状态:
在轨 (已飞行948 天)
发射日期:
2023-09-25 UTC
国别 :
美国 (US)
星等 :
--
Orbit Information
数据来源 国际轨道数据 AOE轨道数据
星历时间 2026-04-30T13:54:22+0800
14小时前
查看轨道信息
2026-04-26T08:00:00+0800
4天前
查看轨道信息
半长轴 6853.383km 6853.371km
偏心率 0.0001107 0.000123
轨道倾角 53.160° 53.160°
近地点辐角 93.355° 72.719°
升交点赤经 144.956° 164.680°
平近点角 266.757° 283.969°
近地点 474.487km 474.391km
远地点 476.005km 476.077km
周期 94.106分钟 94.106分钟
每日圈数 15.301898 15.301937
Detailed Information
固有亮度:
5
最大亮度:
0.3
卫星平台:
Starlink v2.0 mini
覆盖范围:
全球
运营商:
太空探索技术公司
运营商所在国:
美国
制造商(研发单位):
太空探索技术公司
制造商所在国:
美国
使用方式:
暂无
Satellite Introduction
星链(Starlink)计划是由太空探索技术公司(SpaceX)提出的一个巨型低轨卫星互联网星座项目,计划在2019年至2024年间在太空搭建由约1.2万颗卫星组成的“星链”网络,其中1584颗将部署在地球上空550千米处的近地轨道,并从2020年开始工作。该卫星仍在工作。
2D Orbit Map
3D Orbit Map
Orbit Altitude Analysis Chart
Orbit Inclination Analysis Chart
Orbit Comprehensive Analysis Chart
View Comprehensive Chart